カタログに戻る

STARLINK-11371

運用中通信VLEO
NORAD 62879·PAYLOAD·🇺🇸 United States

打ち上げ Feb 4, 2025 から Cape Canaveral Space Force Station

Loading…

次のパス (今後24時間)

TLE

最新Source: CelesTrak SupGP

元期: Sep 14, 2026, 20:40 UTC

1 62879C 25024A   26257.86159722 -.00043112  00000+0 -33497-3 0  2575
2 62879  42.9999 121.4850 0001572 275.5136 140.4360 15.70851317    18

AllMySatでSTARLINK-11371をリアルタイム追跡

Download on the App Store